| time (UTC) | temp C | wind direction | speed KPH | gust KPH | rain 1hr cm | rain 24hr cm | rain mn cm | humidity % | barometer mb |
| 20260507041534 | 13 | 306 | 0.0 | 11.3 | 0.00 | 0.10 | 0.10 | 87 | 1007.5 |
| 20260507041528 | 13 | 346 | 4.8 | 0.0 | 0.00 | 0.00 | 0.00 | 100 | 1002.4 |
| 20260507040036 | 13 | 92 | 0.0 | 4.8 | 0.05 | 0.10 | 0.10 | 87 | 1007.5 |
| 20260507040016 | 13 | 311 | 4.8 | 0.0 | 0.00 | 0.00 | 0.00 | 100 | 1002.2 |
| 20260507034533 | 13 | 92 | 0.0 | 0.0 | 0.05 | 0.10 | 0.10 | 87 | 1007.2 |
| 20260507034517 | 13 | 261 | 6.4 | 0.0 | 0.00 | 0.00 | 0.00 | 100 | 1002.3 |
| 20260507033033 | 13 | 92 | 0.0 | 9.7 | 0.05 | 0.10 | 0.10 | 87 | 1007.4 |
| 20260507033015 | 13 | 244 | 12.9 | 0.0 | 0.00 | 0.00 | 0.00 | 99 | 1002.6 |
| 20260507031532 | 13 | 81 | 0.0 | 6.4 | 0.05 | 0.10 | 0.10 | 87 | 1007.7 |
| 20260507031523 | 13 | 235 | 9.7 | 0.0 | 0.00 | 0.00 | 0.00 | 99 | 1002.4 |
| 20260507030035 | 12 | 71 | 0.0 | 3.2 | 0.00 | 0.05 | 0.05 | 87 | 1007.4 |
| 20260507030014 | 13 | 242 | 4.8 | 0.0 | 0.00 | 0.00 | 0.00 | 99 | 1002.3 |
| 20260507024533 | 12 | 71 | 0.0 | 0.0 | 0.00 | 0.05 | 0.05 | 87 | 1007.5 |
| 20260507024514 | 13 | 219 | 4.8 | 0.0 | 0.00 | 0.00 | 0.00 | 99 | 1002.7 |
| 20260507023030 | 12 | 71 | 0.0 | 0.0 | 0.00 | 0.05 | 0.05 | 86 | 1007.6 |
| 20260507023012 | 12 | 153 | 0.0 | 0.0 | 0.00 | 0.00 | 0.00 | 99 | 1002.3 |
| 20260507021529 | 12 | 71 | 0.0 | 0.0 | 0.00 | 0.05 | 0.05 | 86 | 1007.3 |
| 20260507021512 | 12 | 147 | 0.0 | 0.0 | 0.00 | 0.00 | 0.00 | 99 | 1002.7 |
| 20260507020029 | 12 | 71 | 0.0 | 0.0 | 0.00 | 0.05 | 0.05 | 86 | 1007.7 |
| 20260507020013 | 12 | 147 | 0.0 | 0.0 | 0.00 | 0.00 | 0.00 | 99 | 1002.6 |
| 20260507014542 | 12 | 71 | 0.0 | 0.0 | 0.00 | 0.05 | 0.05 | 86 | 1007.6 |
| 20260507014517 | 12 | 147 | 0.0 | 0.0 | 0.00 | 0.00 | 0.00 | 99 | 1002.4 |
| 20260507013030 | 12 | 71 | 0.0 | 0.0 | 0.00 | 0.05 | 0.05 | 86 | 1007.7 |
| 20260507013020 | 12 | 147 | 0.0 | 0.0 | 0.00 | 0.00 | 0.00 | 98 | 1002.7 |
| 20260507011533 | 12 | 71 | 0.0 | 0.0 | 0.00 | 0.05 | 0.05 | 86 | 1007.7 |
| 20260507011517 | 12 | 147 | 0.0 | 0.0 | 0.00 | 0.00 | 0.00 | 98 | 1002.3 |
| 20260507010033 | 12 | 71 | 0.0 | 0.0 | 0.00 | 0.05 | 0.05 | 86 | 1007.5 |
| 20260507010010 | 12 | 147 | 0.0 | 0.0 | 0.00 | 0.00 | 0.00 | 98 | 1002.2 |
| 20260507004530 | 13 | 71 | 0.0 | 0.0 | 0.00 | 0.05 | 0.05 | 86 | 1007.2 |
| 20260507004523 | 12 | 147 | 4.8 | 0.0 | 0.00 | 0.00 | 0.00 | 98 | 1002.2 |
| 20260507003029 | 13 | 71 | 0.0 | 0.0 | 0.00 | 0.05 | 0.05 | 86 | 1007.2 |
| 20260507003010 | 12 | 170 | 1.6 | 0.0 | 0.00 | 0.00 | 0.00 | 98 | 1002.3 |
| 20260507001529 | 13 | 71 | 0.0 | 0.0 | 0.00 | 0.05 | 0.05 | 86 | 1007.4 |
| 20260507001511 | 13 | 180 | 1.6 | 0.0 | 0.00 | 0.00 | 0.00 | 99 | 1002.4 |
| 20260507000036 | 13 | 71 | 0.0 | 0.0 | 0.00 | 0.05 | 0.05 | 86 | 1007.5 |
| 20260507000014 | 13 | 204 | 3.2 | 0.0 | 0.00 | 0.00 | 0.00 | 98 | 1002.4 |
| 20260506234529 | 13 | 71 | 0.0 | 0.0 | 0.00 | 0.05 | 0.05 | 86 | 1007.3 |
| 20260506234510 | 12 | 207 | 6.4 | 0.0 | 0.00 | 0.00 | 0.00 | 99 | 1002.3 |
| 20260506233032 | 13 | 71 | 0.0 | 3.2 | 0.00 | 0.05 | 0.05 | 86 | 1007.2 |
| 20260506233009 | 12 | 200 | 4.8 | 0.0 | 0.00 | 0.00 | 0.00 | 99 | 1002.3 |
| 20260506231528 | 13 | 70 | 0.0 | 4.8 | 0.00 | 0.05 | 0.05 | 86 | 1007.3 |
| 20260506231517 | 12 | 187 | 3.2 | 0.0 | 0.00 | 0.00 | 0.00 | 99 | 1002.2 |
| 20260506230028 | 13 | 70 | 0.0 | 1.6 | 0.00 | 0.05 | 0.05 | 86 | 1007.2 |
| 20260506230007 | 12 | 173 | 3.2 | 0.0 | 0.00 | 0.00 | 0.00 | 99 | 1002.2 |
| 20260506224528 | 13 | 70 | 0.0 | 0.0 | 0.00 | 0.05 | 0.05 | 86 | 1007.1 |
| 20260506224507 | 12 | 171 | 0.0 | 0.0 | 0.00 | 0.00 | 0.00 | 99 | 1001.9 |
| 20260506223025 | 13 | 70 | 0.0 | 3.2 | 0.00 | 0.05 | 0.05 | 86 | 1007.0 |
| 20260506223006 | 12 | 188 | 1.6 | 0.0 | 0.00 | 0.00 | 0.00 | 99 | 1001.9 |
| 20260506221526 | 12 | 168 | 1.6 | 6.4 | 0.00 | 0.05 | 0.05 | 86 | 1006.9 |
| 20260506221506 | 12 | 177 | 1.6 | 0.0 | 0.00 | 0.00 | 0.00 | 99 | 1001.9 |
| 20260506220025 | 13 | 165 | 0.0 | 6.4 | 0.00 | 0.05 | 0.05 | 86 | 1006.9 |
| 20260506220005 | 12 | 216 | 3.2 | 0.0 | 0.00 | 0.00 | 0.00 | 98 | 1001.8 |
| 20260506214524 | 13 | 165 | 0.0 | 8.0 | 0.00 | 0.05 | 0.05 | 86 | 1006.8 |
| 20260506214504 | 12 | 221 | 1.6 | 0.0 | 0.00 | 0.00 | 0.00 | 98 | 1001.8 |
| 20260506213024 | 13 | 172 | 0.0 | 9.7 | 0.03 | 0.05 | 0.05 | 86 | 1006.8 |
| 20260506213004 | 12 | 173 | 3.2 | 0.0 | 0.00 | 0.00 | 0.00 | 98 | 1001.8 |
| 20260506211523 | 13 | 174 | 1.6 | 8.0 | 0.03 | 0.05 | 0.05 | 86 | 1006.9 |
| 20260506211508 | 12 | 242 | 3.2 | 0.0 | 0.00 | 0.00 | 0.00 | 98 | 1001.8 |
| 20260506210022 | 13 | 176 | 0.0 | 8.0 | 0.05 | 0.05 | 0.05 | 85 | 1006.8 |
| 20260506210007 | 12 | 213 | 3.2 | 0.0 | 0.00 | 0.00 | 0.00 | 98 | 1002.1 |
| 20260506204524 | 13 | 176 | 1.6 | 8.0 | 0.05 | 0.05 | 0.05 | 85 | 1007.2 |
| 20260506204503 | 12 | 236 | 4.8 | 0.0 | 0.00 | 0.00 | 0.00 | 98 | 1002.3 |
| 20260506203022 | 13 | 163 | 1.6 | 9.7 | 0.03 | 0.03 | 0.03 | 85 | 1007.4 |
| 20260506203002 | 12 | 256 | 6.4 | 0.0 | 0.00 | 0.00 | 0.00 | 97 | 1002.2 |
| 20260506201521 | 13 | 182 | 0.0 | 4.8 | 0.03 | 0.03 | 0.03 | 85 | 1007.3 |
| 20260506201503 | 12 | 140 | 4.8 | 0.0 | 0.00 | 0.00 | 0.00 | 97 | 1002.2 |
| 20260506200020 | 13 | 182 | 0.0 | 4.8 | 0.00 | 0.00 | 0.00 | 85 | 1007.1 |
| 20260506194619 | 13 | 184 | 1.6 | 0.0 | 0.00 | 0.00 | 0.00 | 97 | 1002.6 |
| 20260506194519 | 13 | 182 | 0.0 | 4.8 | 0.00 | 0.00 | 0.00 | 85 | 1007.5 |
| 20260506193101 | 13 | 185 | 4.8 | 0.0 | 0.00 | 0.00 | 0.00 | 97 | 1002.3 |
| 20260506193017 | 13 | 182 | 0.0 | 11.3 | 0.00 | 0.00 | 0.00 | 85 | 1007.8 |
| 20260506191600 | 13 | 189 | 4.8 | 0.0 | 0.00 | 0.00 | 0.00 | 97 | 1002.8 |
| 20260506191517 | 13 | 180 | 1.6 | 11.3 | 0.00 | 0.00 | 0.00 | 84 | 1007.6 |
| 20260506190058 | 13 | 153 | 8.0 | 0.0 | 0.00 | 0.00 | 0.00 | 97 | 1002.9 |
| 20260506190015 | 13 | 192 | 0.0 | 9.7 | 0.00 | 0.00 | 0.00 | 85 | 1008.1 |
| 20260506184607 | 13 | 172 | 8.0 | 0.0 | 0.00 | 0.00 | 0.00 | 97 | 1003.1 |
| 20260506184513 | 13 | 181 | 1.6 | 12.9 | 0.00 | 0.00 | 0.00 | 84 | 1008.1 |
| 20260506183102 | 13 | 169 | 8.0 | 0.0 | 0.00 | 0.00 | 0.00 | 96 | 1003.3 |
| 20260506183013 | 13 | 185 | 0.0 | 6.4 | 0.00 | 0.00 | 0.00 | 84 | 1008.1 |
| 20260506181554 | 13 | 139 | 8.0 | 0.0 | 0.00 | 0.00 | 0.00 | 96 | 1003.3 |
| 20260506181512 | 13 | 190 | 0.0 | 9.7 | 0.00 | 0.00 | 0.00 | 84 | 1008.3 |
| 20260506180054 | 13 | 149 | 8.0 | 0.0 | 0.00 | 0.00 | 0.00 | 94 | 1003.6 |
| 20260506180011 | 13 | 175 | 1.6 | 8.0 | 0.00 | 0.00 | 0.00 | 83 | 1008.4 |
| 20260506174551 | 13 | 115 | 4.8 | 0.0 | 0.00 | 0.00 | 0.00 | 93 | 1004.0 |
| 20260506174509 | 14 | 186 | 0.0 | 9.7 | 0.00 | 0.00 | 0.00 | 83 | 1008.8 |
| 20260506173053 | 13 | 145 | 3.2 | 0.0 | 0.00 | 0.00 | 0.00 | 93 | 1004.3 |
| 20260506173006 | 14 | 178 | 0.0 | 11.3 | 0.00 | 0.00 | 0.00 | 83 | 1009.2 |
| 20260506171553 | 13 | 140 | 3.2 | 0.0 | 0.00 | 0.00 | 0.00 | 92 | 1004.4 |
| 20260506171510 | 15 | 193 | 0.0 | 12.9 | 0.00 | 0.00 | 0.00 | 82 | 1009.2 |
| 20260506170107 | 14 | 192 | 4.8 | 0.0 | 0.00 | 0.00 | 0.00 | 92 | 1004.6 |
| 20260506170019 | 14 | 212 | 4.8 | 0.0 | 0.00 | 0.00 | 0.00 | 91 | 1004.6 |
| 20260506170005 | 15 | 162 | 0.0 | 9.7 | 0.00 | 0.00 | 0.00 | 81 | 1009.5 |
| 20260506164549 | 14 | 188 | 6.4 | 0.0 | 0.00 | 0.00 | 0.00 | 90 | 1004.8 |
| 20260506164505 | 15 | 189 | 1.6 | 8.0 | 0.00 | 0.00 | 0.00 | 80 | 1009.5 |
| 20260506163100 | 15 | 227 | 4.8 | 0.0 | 0.00 | 0.00 | 0.00 | 89 | 1004.8 |
| 20260506163007 | 15 | 142 | 1.6 | 12.9 | 0.00 | 0.00 | 0.00 | 80 | 1009.8 |
| 20260506161548 | 15 | 181 | 6.4 | 0.0 | 0.00 | 0.00 | 0.00 | 89 | 1004.9 |
| 20260506161504 | 16 | 118 | 3.2 | 11.3 | 0.00 | 0.00 | 0.00 | 80 | 1009.7 |
| 20260506160047 | 15 | 199 | 9.7 | 0.0 | 0.00 | 0.00 | 0.00 | 89 | 1005.3 |
| 20260506160007 | 16 | 150 | 3.2 | 14.5 | 0.00 | 0.00 | 0.00 | 80 | 1010.0 |
| 20260506154546 | 15 | 162 | 6.4 | 0.0 | 0.00 | 0.00 | 0.00 | 89 | 1005.3 |
| 20260506154503 | 16 | 182 | 3.2 | 19.3 | 0.00 | 0.00 | 0.00 | 80 | 1010.2 |
| 20260506153048 | 15 | 214 | 3.2 | 0.0 | 0.00 | 0.00 | 0.00 | 89 | 1004.9 |
| 20260506153004 | 16 | 181 | 0.0 | 8.0 | 0.00 | 0.00 | 0.00 | 79 | 1010.3 |
| 20260506151547 | 15 | 135 | 4.8 | 0.0 | 0.00 | 0.00 | 0.00 | 89 | 1004.9 |
| 20260506151503 | 16 | 170 | 1.6 | 9.7 | 0.00 | 0.00 | 0.00 | 78 | 1010.0 |
| 20260506150045 | 15 | 131 | 6.4 | 0.0 | 0.00 | 0.00 | 0.00 | 89 | 1005.2 |
| 20260506150002 | 16 | 104 | 0.0 | 11.3 | 0.00 | 0.00 | 0.00 | 78 | 1010.1 |
| 20260506144558 | 15 | 192 | 8.0 | 0.0 | 0.00 | 0.00 | 0.00 | 88 | 1005.4 |
| 20260506144501 | 17 | 171 | 0.0 | 6.4 | 0.00 | 0.00 | 0.00 | 78 | 1010.3 |
| 20260506143108 | 17 | 169 | 3.2 | 17.7 | 0.00 | 0.00 | 0.00 | 78 | 1010.4 |
| 20260506143045 | 15 | 168 | 8.0 | 0.0 | 0.00 | 0.00 | 0.00 | 87 | 1005.4 |
| 20260506141600 | 17 | 198 | 3.2 | 14.5 | 0.00 | 0.00 | 0.00 | 78 | 1010.3 |
| 20260506141543 | 16 | 202 | 9.7 | 0.0 | 0.00 | 0.00 | 0.00 | 87 | 1005.7 |
| 20260506140101 | 16 | 155 | 3.2 | 12.9 | 0.00 | 0.00 | 0.00 | 79 | 1010.6 |
| 20260506140045 | 15 | 225 | 8.0 | 0.0 | 0.00 | 0.00 | 0.00 | 88 | 1005.4 |
| 20260506134558 | 16 | 190 | 1.6 | 8.0 | 0.00 | 0.00 | 0.00 | 80 | 1010.3 |
| 20260506134540 | 15 | 181 | 6.4 | 0.0 | 0.00 | 0.00 | 0.00 | 89 | 1005.4 |
| 20260506133058 | 16 | 179 | 0.0 | 9.7 | 0.00 | 0.00 | 0.00 | 80 | 1010.3 |
| 20260506133040 | 15 | 194 | 4.8 | 0.0 | 0.00 | 0.00 | 0.00 | 90 | 1005.2 |
| 20260506131600 | 16 | 188 | 0.0 | 12.9 | 0.00 | 0.00 | 0.00 | 79 | 1010.1 |
| 20260506131538 | 15 | 180 | 6.4 | 0.0 | 0.00 | 0.00 | 0.00 | 91 | 1005.4 |
| 20260506130059 | 16 | 165 | 3.2 | 14.5 | 0.00 | 0.00 | 0.00 | 78 | 1010.2 |
| 20260506130038 | 15 | 235 | 8.0 | 0.0 | 0.00 | 0.00 | 0.00 | 90 | 1005.6 |
| 20260506124555 | 17 | 146 | 3.2 | 9.7 | 0.00 | 0.00 | 0.00 | 79 | 1010.5 |
| 20260506124535 | 15 | 192 | 8.0 | 0.0 | 0.00 | 0.00 | 0.00 | 90 | 1005.8 |
| 20260506123054 | 16 | 169 | 0.0 | 11.3 | 0.00 | 0.00 | 0.00 | 81 | 1010.8 |
| 20260506123033 | 15 | 194 | 8.0 | 0.0 | 0.00 | 0.00 | 0.00 | 91 | 1005.7 |
| 20260506121552 | 16 | 175 | 1.6 | 11.3 | 0.00 | 0.00 | 0.00 | 82 | 1010.7 |
| 20260506121527 | 14 | 203 | 6.4 | 0.0 | 0.00 | 0.00 | 0.00 | 92 | 1005.4 |
| 20260506120056 | 15 | 171 | 1.6 | 11.3 | 0.00 | 0.00 | 0.00 | 83 | 1010.6 |
| 20260506120037 | 14 | 221 | 6.4 | 0.0 | 0.00 | 0.00 | 0.00 | 93 | 1005.3 |
| 20260506114555 | 14 | 138 | 1.6 | 9.7 | 0.00 | 0.00 | 0.00 | 84 | 1010.6 |
| 20260506114522 | 14 | 180 | 6.4 | 0.0 | 0.00 | 0.00 | 0.00 | 94 | 1005.4 |
| 20260506113049 | 13 | 126 | 0.0 | 6.4 | 0.00 | 0.00 | 0.00 | 84 | 1010.6 |
| 20260506113028 | 13 | 246 | 4.8 | 0.0 | 0.00 | 0.00 | 0.00 | 94 | 1005.4 |
| 20260506111550 | 13 | 166 | 0.0 | 6.4 | 0.00 | 0.00 | 0.00 | 84 | 1010.6 |
| 20260506111519 | 13 | 261 | 3.2 | 0.0 | 0.00 | 0.00 | 0.00 | 95 | 1005.4 |
| 20260506110055 | 13 | 150 | 1.6 | 11.3 | 0.00 | 0.00 | 0.00 | 84 | 1010.6 |
| 20260506110017 | 13 | 242 | 1.6 | 0.0 | 0.00 | 0.00 | 0.00 | 95 | 1005.3 |
| 20260506104548 | 13 | 166 | 0.0 | 6.4 | 0.00 | 0.00 | 0.00 | 84 | 1010.6 |
| 20260506104515 | 13 | 254 | 0.0 | 0.0 | 0.00 | 0.00 | 0.00 | 96 | 1005.4 |
| 20260506103041 | 12 | 175 | 0.0 | 4.8 | 0.00 | 0.00 | 0.00 | 84 | 1010.6 |
| 20260506103015 | 12 | 202 | 3.2 | 0.0 | 0.00 | 0.00 | 0.00 | 96 | 1005.4 |
| 20260506101543 | 12 | 175 | 0.0 | 8.0 | 0.00 | 0.00 | 0.00 | 84 | 1010.6 |
| 20260506101516 | 12 | 251 | 1.6 | 0.0 | 0.00 | 0.00 | 0.00 | 95 | 1005.3 |
| 20260506100044 | 12 | 171 | 0.0 | 8.0 | 0.00 | 0.00 | 0.00 | 84 | 1010.5 |
| 20260506100015 | 12 | 187 | 0.0 | 0.0 | 0.00 | 0.00 | 0.00 | 95 | 1005.2 |
| 20260506094554 | 12 | 175 | 0.0 | 4.8 | 0.00 | 0.00 | 0.00 | 84 | 1010.4 |
| 20260506094516 | 12 | 234 | 1.6 | 0.0 | 0.00 | 0.00 | 0.00 | 95 | 1005.1 |
| 20260506093043 | 12 | 175 | 0.0 | 4.8 | 0.00 | 0.00 | 0.00 | 84 | 1010.4 |
| 20260506093014 | 12 | 178 | 0.0 | 0.0 | 0.00 | 0.00 | 0.00 | 95 | 1005.2 |
| 20260506091538 | 12 | 175 | 0.0 | 9.7 | 0.00 | 0.00 | 0.00 | 84 | 1010.5 |
| 20260506091517 | 12 | 175 | 3.2 | 0.0 | 0.00 | 0.00 | 0.00 | 95 | 1005.3 |
| 20260506090035 | 12 | 190 | 0.0 | 1.6 | 0.00 | 0.00 | 0.00 | 84 | 1010.6 |
| 20260506090019 | 12 | 221 | 3.2 | 0.0 | 0.00 | 0.00 | 0.00 | 94 | 1005.4 |
| 20260506084535 | 12 | 190 | 0.0 | 6.4 | 0.00 | 0.00 | 0.00 | 83 | 1010.6 |
| 20260506084513 | 12 | 215 | 4.8 | 0.0 | 0.00 | 0.00 | 0.00 | 95 | 1005.6 |
| 20260506083035 | 12 | 175 | 0.0 | 8.0 | 0.00 | 0.00 | 0.00 | 83 | 1010.8 |
| 20260506083014 | 12 | 202 | 0.0 | 0.0 | 0.00 | 0.00 | 0.00 | 94 | 1005.4 |
| 20260506081535 | 13 | 174 | 0.0 | 8.0 | 0.00 | 0.00 | 0.00 | 83 | 1010.7 |
| 20260506081513 | 12 | 241 | 1.6 | 0.0 | 0.00 | 0.00 | 0.00 | 94 | 1005.5 |
| 20260506073030 | 13 | 181 | 1.6 | 11.3 | 0.00 | 0.00 | 0.00 | 83 | 1010.8 |
| 20260506073011 | 13 | 172 | 1.6 | 0.0 | 0.00 | 0.00 | 0.00 | 93 | 1005.7 |
| 20260506071532 | 13 | 186 | 1.6 | 11.3 | 0.00 | 0.00 | 0.00 | 82 | 1010.8 |
| 20260506071511 | 13 | 227 | 4.8 | 0.0 | 0.00 | 0.00 | 0.00 | 93 | 1005.7 |
| 20260506061532 | 13 | 184 | 0.0 | 6.4 | 0.00 | 0.00 | 0.00 | 82 | 1010.9 |
| 20260506061508 | 13 | 220 | 1.6 | 0.0 | 0.00 | 0.00 | 0.00 | 91 | 1005.8 |
| 20260506044524 | 14 | 169 | 0.0 | 12.9 | 0.00 | 0.00 | 0.00 | 80 | 1011.3 |
| 20260506044508 | 14 | 215 | 9.7 | 0.0 | 0.00 | 0.00 | 0.00 | 88 | 1006.2 |
| 20260506043016 | 14 | 169 | 1.6 | 8.0 | 0.00 | 0.00 | 0.00 | 80 | 1011.3 |
| 20260506043008 | 14 | 230 | 12.9 | 0.0 | 0.00 | 0.00 | 0.00 | 88 | 1006.2 |